| time (UTC) | temp F | wind direction | speed knots | gust knots | rain 1hr in | rain 24hr in | rain mn in | humidity % | barometer mb |
| 20260504231559 | 62 | 194 | 0.0 | 0.0 | 0.00 | 0.00 | 0.00 | 56 | 1008.4 |
| 20260504230057 | 63 | 194 | 0.0 | 0.0 | 0.00 | 0.00 | 0.00 | 55 | 1008.5 |
| 20260504224608 | 63 | 194 | 0.0 | 0.0 | 0.00 | 0.00 | 0.00 | 55 | 1008.6 |
| 20260504223052 | 64 | 196 | 0.0 | 10.4 | 0.00 | 0.00 | 0.00 | 54 | 1008.6 |
| 20260504221549 | 64 | 206 | 0.0 | 7.8 | 0.00 | 0.00 | 0.00 | 53 | 1008.8 |
| 20260504220047 | 65 | 207 | 0.9 | 8.7 | 0.00 | 0.00 | 0.00 | 52 | 1008.9 |
| 20260504214546 | 65 | 214 | 4.3 | 13.9 | 0.00 | 0.00 | 0.00 | 52 | 1008.9 |
| 20260504213104 | 65 | 206 | 4.3 | 10.4 | 0.00 | 0.00 | 0.00 | 51 | 1009.1 |
| 20260504211545 | 65 | 190 | 0.0 | 11.3 | 0.00 | 0.00 | 0.00 | 51 | 1009.1 |
| 20260504210047 | 66 | 179 | 1.7 | 6.1 | 0.00 | 0.00 | 0.00 | 50 | 1009.2 |
| 20260504204547 | 67 | 178 | 0.9 | 8.7 | 0.00 | 0.00 | 0.00 | 48 | 1009.3 |
| 20260504203052 | 68 | 183 | 0.9 | 13.9 | 0.00 | 0.00 | 0.00 | 46 | 1009.2 |
| 20260504201543 | 68 | 177 | 3.5 | 12.2 | 0.00 | 0.00 | 0.00 | 45 | 1009.2 |
| 20260504200046 | 69 | 209 | 0.0 | 17.4 | 0.00 | 0.00 | 0.00 | 44 | 1009.3 |
| 20260504194556 | 70 | 204 | 3.5 | 20.9 | 0.00 | 0.00 | 0.00 | 43 | 1009.3 |
| 20260504193052 | 71 | 194 | 7.8 | 20.9 | 0.00 | 0.00 | 0.00 | 42 | 1009.4 |
| 20260504191541 | 71 | 188 | 6.1 | 20.9 | 0.00 | 0.00 | 0.00 | 41 | 1009.2 |
| 20260504190042 | 72 | 189 | 12.2 | 28.7 | 0.00 | 0.00 | 0.00 | 40 | 1009.1 |
| 20260504184540 | 72 | 184 | 8.7 | 20.0 | 0.00 | 0.00 | 0.00 | 39 | 1009.1 |
| 20260504183040 | 72 | 190 | 10.4 | 28.7 | 0.00 | 0.00 | 0.00 | 38 | 1009.0 |
| 20260504181543 | 73 | 188 | 10.4 | 24.3 | 0.00 | 0.00 | 0.00 | 37 | 1009.0 |
| 20260504180040 | 74 | 184 | 9.6 | 24.3 | 0.00 | 0.00 | 0.00 | 36 | 1009.0 |
| 20260504174539 | 74 | 186 | 9.6 | 26.9 | 0.00 | 0.00 | 0.00 | 35 | 1008.9 |
| 20260504173047 | 75 | 197 | 13.0 | 27.8 | 0.00 | 0.00 | 0.00 | 35 | 1009.0 |
| 20260504171538 | 76 | 201 | 11.3 | 27.8 | 0.00 | 0.00 | 0.00 | 34 | 1008.9 |
| 20260504110107 | 77 | 186 | 7.0 | 24.3 | 0.00 | 0.00 | 0.00 | 37 | 1012.3 |
| 20260504081520 | 70 | 162 | 6.1 | 13.9 | 0.00 | 0.00 | 0.00 | 50 | 1013.5 |
| 20260504044555 | 57 | 185 | 0.9 | 9.6 | 0.00 | 0.00 | 0.00 | 64 | 1012.9 |
| 20260504043039 | 57 | 217 | 0.0 | 0.9 | 0.00 | 0.00 | 0.00 | 65 | 1012.8 |
| 20260504041533 | 57 | 214 | 4.3 | 10.4 | 0.00 | 0.00 | 0.00 | 65 | 1012.7 |
| 20260504040032 | 56 | 207 | 4.3 | 8.7 | 0.00 | 0.00 | 0.00 | 65 | 1012.7 |
| 20260504034536 | 56 | 208 | 0.0 | 8.7 | 0.00 | 0.00 | 0.00 | 65 | 1012.7 |
| 20260504033032 | 57 | 209 | 0.0 | 7.0 | 0.00 | 0.00 | 0.00 | 64 | 1012.7 |
| 20260504031523 | 57 | 209 | 2.6 | 13.9 | 0.00 | 0.00 | 0.00 | 63 | 1012.7 |
| 20260504030023 | 57 | 230 | 6.1 | 22.6 | 0.00 | 0.00 | 0.00 | 62 | 1012.7 |
| 20260504024521 | 57 | 206 | 7.0 | 19.1 | 0.00 | 0.00 | 0.00 | 62 | 1012.6 |
| 20260504023016 | 57 | 204 | 7.0 | 14.8 | 0.00 | 0.00 | 0.00 | 62 | 1012.6 |
| 20260504021512 | 57 | 211 | 0.0 | 0.0 | 0.00 | 0.00 | 0.00 | 62 | 1012.8 |
| 20260504020015 | 58 | 211 | 0.0 | 0.0 | 0.00 | 0.00 | 0.00 | 60 | 1013.0 |
| 20260504014507 | 58 | 201 | 0.0 | 12.2 | 0.00 | 0.00 | 0.00 | 59 | 1013.0 |
| 20260504013009 | 59 | 214 | 1.7 | 14.8 | 0.00 | 0.00 | 0.00 | 57 | 1012.7 |
| 20260504011502 | 60 | 216 | 1.7 | 20.0 | 0.00 | 0.00 | 0.00 | 56 | 1012.5 |
| 20260504010109 | 60 | 193 | 3.5 | 19.1 | 0.00 | 0.00 | 0.00 | 56 | 1012.5 |
| 20260504004557 | 60 | 184 | 2.6 | 13.9 | 0.00 | 0.00 | 0.00 | 55 | 1012.5 |
| 20260504003055 | 60 | 196 | 5.2 | 19.1 | 0.00 | 0.00 | 0.00 | 54 | 1012.5 |
| 20260504001610 | 60 | 177 | 5.2 | 18.2 | 0.00 | 0.00 | 0.00 | 54 | 1012.7 |
| 20260504000050 | 60 | 205 | 8.7 | 21.7 | 0.00 | 0.00 | 0.00 | 54 | 1012.7 |
| 20260503234546 | 61 | 191 | 6.1 | 19.1 | 0.00 | 0.00 | 0.00 | 53 | 1012.7 |
| 20260503233044 | 61 | 208 | 9.6 | 22.6 | 0.00 | 0.00 | 0.00 | 53 | 1012.8 |